Tracking 31027 objects as of 19-Jul-2025
HD Live streaming from Space Station
objects crossing your sky now

STTW-T2

Track STTW-T2 now!
STTW-T2 is classified as:


NORAD ID: 14899
Int'l Code: 1984-035A
Perigee: 35,726.4 km
Apogee: 35,801.0 km
Inclination: 10.0 °
Period: 1,434.6 minutes
Semi major axis: 42134 km
RCS: 3.981 m2 (large)
Launch date: April 8, 1984
Source: People's Republic of China (PRC)
Launch site: Xichang Space Center, China (XSC)
Your satellite tracking list
TITAN 3C TRANSTAGE DEB
Track 1 satellite(s)




NASA's NSSDC Master Catalog

Two Line Element Set (TLE):
1 14899U 84035A   25199.90399782 -.00000272  00000-0  00000+0 0  9995
2 14899  10.0285 320.0009 0008859 184.8734 210.4606  1.00378994126759
Source of the keplerian elements: AFSPC